Location: Akron Fire Department Station 11
(41.1400°N, 81.5503°W)
Time: 00:14:45
(UTC+00:00)

N. Korean satellite - Visible Passes

Search period start: 21 September 2020 00:00
Search period end: 01 October 2020 00:00
Orbit: 455 x 503 km, 97.2° (Epoch: 20 September)

Date Brightness Start Highest point End Pass type
(mag) Time Alt. Az. Time Alt. Az. Time Alt. Az.
21 Sep 9.5 10:16:18 10° NE 10:19:11 22° E 10:22:01 10° SSE visible
22 Sep 10.3 09:52:16 10° E 09:52:57 10° E 09:53:39 10° E visible
24 Sep 8.6 10:31:14 10° NNE 10:34:34 33° E 10:37:50 10° SSE visible
25 Sep 9.8 10:06:05 10° NE 10:08:24 16° E 10:10:41 10° SE visible
27 Sep 7.5 10:46:20 10° NNE 10:49:55 53° E 10:53:23 10° S visible
28 Sep 9.2 10:20:47 10° NE 10:23:47 24° E 10:26:44 10° SSE visible
29 Sep 10.1 09:56:12 10° ENE 09:57:34 12° E 09:58:56 10° ESE visible
